| time (UTC) | temp F | wind direction | speed MPH | gust MPH | rain 1hr in | rain 24hr in | rain mn in | humidity % | barometer mb |
| 20260505062517 | 63 | 264 | 4.0 | 9.0 | 0.00 | 0.00 | 0.00 | 64 | 1010.6 |
| 20260505062017 | 63 | 242 | 5.0 | 7.0 | 0.00 | 0.00 | 0.00 | 64 | 1010.7 |
| 20260505061518 | 63 | 252 | 4.0 | 6.0 | 0.00 | 0.00 | 0.00 | 64 | 1010.7 |
| 20260505061018 | 63 | 251 | 2.0 | 4.0 | 0.00 | 0.00 | 0.00 | 63 | 1010.7 |
| 20260505060517 | 63 | 237 | 3.0 | 7.0 | 0.00 | 0.00 | 0.00 | 63 | 1010.7 |
| 20260505060018 | 64 | 243 | 4.0 | 6.0 | 0.00 | 0.00 | 0.00 | 63 | 1010.7 |
| 20260505055517 | 64 | 252 | 4.0 | 8.0 | 0.00 | 0.00 | 0.00 | 62 | 1010.7 |
| 20260505055017 | 64 | 251 | 3.0 | 6.0 | 0.00 | 0.00 | 0.00 | 62 | 1010.7 |
| 20260505054517 | 64 | 243 | 4.0 | 7.0 | 0.00 | 0.00 | 0.00 | 61 | 1010.8 |
| 20260505054018 | 64 | 252 | 4.0 | 8.0 | 0.00 | 0.00 | 0.00 | 61 | 1010.8 |
| 20260505053518 | 64 | 255 | 4.0 | 8.0 | 0.00 | 0.00 | 0.00 | 61 | 1010.8 |
| 20260505053019 | 64 | 258 | 2.0 | 7.0 | 0.00 | 0.00 | 0.00 | 60 | 1010.8 |
| 20260505052517 | 64 | 246 | 2.0 | 4.0 | 0.00 | 0.00 | 0.00 | 60 | 1010.8 |
| 20260505052018 | 64 | 240 | 4.0 | 8.0 | 0.00 | 0.00 | 0.00 | 60 | 1010.8 |
| 20260505051518 | 64 | 248 | 3.0 | 6.0 | 0.00 | 0.00 | 0.00 | 60 | 1010.9 |
| 20260505051017 | 64 | 248 | 3.0 | 7.0 | 0.00 | 0.00 | 0.00 | 60 | 1010.9 |
| 20260505050517 | 64 | 222 | 2.0 | 4.0 | 0.00 | 0.00 | 0.00 | 60 | 1010.9 |
| 20260505041517 | 64 | 229 | 2.0 | 4.0 | 0.00 | 0.00 | 0.00 | 61 | 1010.9 |
| 20260505041017 | 64 | 232 | 3.0 | 6.0 | 0.00 | 0.00 | 0.00 | 61 | 1010.9 |
| 20260505040518 | 64 | 231 | 2.0 | 5.0 | 0.00 | 0.00 | 0.00 | 61 | 1010.9 |
| 20260505040018 | 64 | 220 | 2.0 | 5.0 | 0.00 | 0.00 | 0.00 | 61 | 1010.9 |
| 20260505035518 | 64 | 212 | 2.0 | 6.0 | 0.00 | 0.00 | 0.00 | 61 | 1010.9 |
| 20260505035017 | 64 | 211 | 3.0 | 4.0 | 0.00 | 0.00 | 0.00 | 60 | 1011.0 |
| 20260505034517 | 64 | 224 | 3.0 | 6.0 | 0.00 | 0.00 | 0.00 | 61 | 1010.9 |
| 20260505034017 | 64 | 243 | 3.0 | 6.0 | 0.00 | 0.00 | 0.00 | 61 | 1010.9 |
| 20260505033517 | 64 | 230 | 2.0 | 4.0 | 0.00 | 0.00 | 0.00 | 61 | 1010.9 |
| 20260505033017 | 64 | 247 | 2.0 | 5.0 | 0.00 | 0.00 | 0.00 | 60 | 1010.9 |
| 20260505032517 | 64 | 235 | 3.0 | 5.0 | 0.00 | 0.00 | 0.00 | 60 | 1010.9 |
| 20260505032017 | 64 | 245 | 3.0 | 6.0 | 0.00 | 0.00 | 0.00 | 60 | 1010.9 |
| 20260505031517 | 64 | 217 | 1.0 | 3.0 | 0.00 | 0.00 | 0.00 | 59 | 1010.9 |
| 20260505031017 | 64 | 208 | 2.0 | 4.0 | 0.00 | 0.00 | 0.00 | 58 | 1010.8 |
| 20260505030517 | 64 | 238 | 2.0 | 5.0 | 0.00 | 0.00 | 0.00 | 56 | 1010.9 |
| 20260505030017 | 64 | 247 | 2.0 | 6.0 | 0.00 | 0.00 | 0.00 | 55 | 1010.9 |
| 20260505025518 | 64 | 231 | 2.0 | 6.0 | 0.00 | 0.00 | 0.00 | 55 | 1011.0 |
| 20260505025017 | 64 | 262 | 3.0 | 5.0 | 0.00 | 0.00 | 0.00 | 54 | 1011.1 |
| 20260505024518 | 64 | 235 | 2.0 | 3.0 | 0.00 | 0.00 | 0.00 | 54 | 1011.1 |
| 20260505024018 | 65 | 217 | 2.0 | 5.0 | 0.00 | 0.00 | 0.00 | 54 | 1011.1 |
| 20260505023517 | 65 | 236 | 2.0 | 4.0 | 0.00 | 0.00 | 0.00 | 52 | 1011.1 |
| 20260505023018 | 65 | 217 | 3.0 | 6.0 | 0.00 | 0.00 | 0.00 | 52 | 1011.2 |
| 20260505022517 | 65 | 223 | 2.0 | 4.0 | 0.00 | 0.00 | 0.00 | 51 | 1011.1 |
| 20260505022017 | 66 | 230 | 4.0 | 8.0 | 0.00 | 0.00 | 0.00 | 50 | 1011.1 |
| 20260505021517 | 66 | 243 | 2.0 | 4.0 | 0.00 | 0.00 | 0.00 | 49 | 1011.1 |
| 20260505021018 | 66 | 224 | 2.0 | 4.0 | 0.00 | 0.00 | 0.00 | 49 | 1011.1 |
| 20260505020518 | 66 | 241 | 3.0 | 6.0 | 0.00 | 0.00 | 0.00 | 49 | 1011.1 |
| 20260505020017 | 67 | 246 | 1.0 | 4.0 | 0.00 | 0.00 | 0.00 | 49 | 1010.9 |
| 20260505015517 | 67 | 221 | 4.0 | 8.0 | 0.00 | 0.00 | 0.00 | 48 | 1010.9 |
| 20260505015018 | 67 | 217 | 2.0 | 5.0 | 0.00 | 0.00 | 0.00 | 48 | 1010.8 |
| 20260505014518 | 67 | 208 | 2.0 | 4.0 | 0.00 | 0.00 | 0.00 | 48 | 1010.8 |
| 20260505014017 | 67 | 232 | 3.0 | 6.0 | 0.00 | 0.00 | 0.00 | 47 | 1010.8 |
| 20260505013519 | 67 | 225 | 3.0 | 5.0 | 0.00 | 0.00 | 0.00 | 48 | 1010.9 |
| 20260505013018 | 67 | 226 | 3.0 | 5.0 | 0.00 | 0.00 | 0.00 | 48 | 1010.9 |
| 20260505012517 | 67 | 214 | 1.0 | 3.0 | 0.00 | 0.00 | 0.00 | 48 | 1010.9 |
| 20260505012017 | 67 | 248 | 4.0 | 7.0 | 0.00 | 0.00 | 0.00 | 48 | 1010.8 |
| 20260505011518 | 68 | 222 | 2.0 | 7.0 | 0.00 | 0.00 | 0.00 | 48 | 1010.7 |
| 20260505011017 | 68 | 243 | 4.0 | 6.0 | 0.00 | 0.00 | 0.00 | 47 | 1010.8 |
| 20260505010517 | 68 | 247 | 4.0 | 8.0 | 0.00 | 0.00 | 0.00 | 46 | 1010.7 |
| 20260505010017 | 68 | 217 | 4.0 | 9.0 | 0.00 | 0.00 | 0.00 | 46 | 1010.7 |
| 20260505005517 | 69 | 248 | 4.0 | 9.0 | 0.00 | 0.00 | 0.00 | 45 | 1010.6 |
| 20260505005017 | 69 | 235 | 3.0 | 6.0 | 0.00 | 0.00 | 0.00 | 45 | 1010.5 |
| 20260505004518 | 69 | 223 | 3.0 | 9.0 | 0.00 | 0.00 | 0.00 | 44 | 1010.4 |
| 20260505004017 | 69 | 208 | 3.0 | 8.0 | 0.00 | 0.00 | 0.00 | 44 | 1010.3 |
| 20260505003518 | 69 | 231 | 3.0 | 7.0 | 0.00 | 0.00 | 0.00 | 44 | 1010.3 |
| 20260505003017 | 69 | 225 | 3.0 | 5.0 | 0.00 | 0.00 | 0.00 | 43 | 1010.3 |
| 20260505002518 | 70 | 221 | 3.0 | 7.0 | 0.00 | 0.00 | 0.00 | 43 | 1010.2 |
| 20260505002017 | 70 | 239 | 3.0 | 6.0 | 0.00 | 0.00 | 0.00 | 43 | 1010.2 |
| 20260505001517 | 70 | 211 | 2.0 | 4.0 | 0.00 | 0.00 | 0.00 | 43 | 1010.2 |
| 20260505001017 | 70 | 231 | 2.0 | 4.0 | 0.00 | 0.00 | 0.00 | 43 | 1010.2 |
| 20260505000518 | 70 | 204 | 2.0 | 4.0 | 0.00 | 0.00 | 0.00 | 42 | 1010.1 |
| 20260505000018 | 71 | 216 | 4.0 | 9.0 | 0.00 | 0.00 | 0.00 | 42 | 1010.1 |
| 20260504235517 | 71 | 226 | 4.0 | 7.0 | 0.00 | 0.00 | 0.00 | 41 | 1010.1 |
| 20260504235017 | 71 | 232 | 4.0 | 8.0 | 0.00 | 0.00 | 0.00 | 40 | 1010.0 |
| 20260504234518 | 72 | 213 | 3.0 | 6.0 | 0.00 | 0.00 | 0.00 | 38 | 1010.0 |
| 20260504234019 | 72 | 217 | 3.0 | 6.0 | 0.00 | 0.00 | 0.00 | 37 | 1009.9 |
| 20260504233518 | 72 | 235 | 4.0 | 6.0 | 0.00 | 0.00 | 0.00 | 38 | 1009.8 |
| 20260504233017 | 72 | 258 | 4.0 | 9.0 | 0.00 | 0.00 | 0.00 | 37 | 1009.8 |
| 20260504232519 | 72 | 250 | 6.0 | 8.0 | 0.00 | 0.00 | 0.00 | 37 | 1009.8 |
| 20260504232017 | 72 | 245 | 4.0 | 7.0 | 0.00 | 0.00 | 0.00 | 37 | 1009.8 |
| 20260504231518 | 72 | 242 | 4.0 | 6.0 | 0.00 | 0.00 | 0.00 | 37 | 1009.9 |
| 20260504231018 | 73 | 257 | 5.0 | 8.0 | 0.00 | 0.00 | 0.00 | 36 | 1009.8 |
| 20260504230518 | 73 | 252 | 3.0 | 4.0 | 0.00 | 0.00 | 0.00 | 36 | 1009.8 |
| 20260504230017 | 73 | 265 | 4.0 | 7.0 | 0.00 | 0.00 | 0.00 | 35 | 1009.8 |
| 20260504225517 | 73 | 229 | 3.0 | 5.0 | 0.00 | 0.00 | 0.00 | 35 | 1009.8 |
| 20260504225017 | 73 | 194 | 1.0 | 2.0 | 0.00 | 0.00 | 0.00 | 35 | 1009.8 |
| 20260504224517 | 73 | 253 | 2.0 | 6.0 | 0.00 | 0.00 | 0.00 | 35 | 1009.9 |
| 20260504224018 | 73 | 244 | 4.0 | 11.0 | 0.00 | 0.00 | 0.00 | 35 | 1009.9 |
| 20260504223518 | 73 | 224 | 2.0 | 5.0 | 0.00 | 0.00 | 0.00 | 35 | 1010.0 |
| 20260504223017 | 73 | 230 | 2.0 | 6.0 | 0.00 | 0.00 | 0.00 | 35 | 1009.9 |
| 20260504222517 | 73 | 227 | 5.0 | 9.0 | 0.00 | 0.00 | 0.00 | 35 | 1009.8 |
| 20260504222017 | 74 | 250 | 5.0 | 9.0 | 0.00 | 0.00 | 0.00 | 35 | 1009.9 |
| 20260504221517 | 74 | 245 | 6.0 | 11.0 | 0.00 | 0.00 | 0.00 | 34 | 1010.0 |
| 20260504221017 | 74 | 252 | 6.0 | 9.0 | 0.00 | 0.00 | 0.00 | 34 | 1010.0 |
| 20260504220517 | 74 | 236 | 3.0 | 6.0 | 0.00 | 0.00 | 0.00 | 34 | 1009.9 |
| 20260504220018 | 74 | 263 | 3.0 | 6.0 | 0.00 | 0.00 | 0.00 | 34 | 1010.0 |
| 20260504215520 | 74 | 245 | 5.0 | 10.0 | 0.00 | 0.00 | 0.00 | 33 | 1010.1 |
| 20260504215018 | 75 | 243 | 4.0 | 6.0 | 0.00 | 0.00 | 0.00 | 33 | 1010.0 |
| 20260504214518 | 74 | 258 | 1.0 | 3.0 | 0.00 | 0.00 | 0.00 | 33 | 1010.0 |
| 20260504214018 | 74 | 249 | 4.0 | 11.0 | 0.00 | 0.00 | 0.00 | 33 | 1010.1 |
| 20260504213517 | 74 | 271 | 3.0 | 5.0 | 0.00 | 0.00 | 0.00 | 33 | 1010.1 |
| 20260504213018 | 74 | 254 | 5.0 | 11.0 | 0.00 | 0.00 | 0.00 | 33 | 1010.2 |
| 20260504212518 | 74 | 243 | 3.0 | 6.0 | 0.00 | 0.00 | 0.00 | 33 | 1010.2 |
| 20260504212017 | 74 | 246 | 4.0 | 8.0 | 0.00 | 0.00 | 0.00 | 33 | 1010.2 |
| 20260504211519 | 74 | 232 | 6.0 | 12.0 | 0.00 | 0.00 | 0.00 | 33 | 1010.2 |
| 20260504211017 | 74 | 245 | 7.0 | 12.0 | 0.00 | 0.00 | 0.00 | 33 | 1010.0 |
| 20260504210517 | 74 | 259 | 4.0 | 7.0 | 0.00 | 0.00 | 0.00 | 33 | 1010.1 |
| 20260504210017 | 74 | 250 | 5.0 | 9.0 | 0.00 | 0.00 | 0.00 | 33 | 1010.1 |
| 20260504205517 | 74 | 240 | 5.0 | 11.0 | 0.00 | 0.00 | 0.00 | 33 | 1010.1 |
| 20260504205017 | 74 | 252 | 4.0 | 7.0 | 0.00 | 0.00 | 0.00 | 33 | 1010.2 |
| 20260504204517 | 74 | 236 | 3.0 | 8.0 | 0.00 | 0.00 | 0.00 | 33 | 1010.2 |
| 20260504204018 | 74 | 255 | 5.0 | 12.0 | 0.00 | 0.00 | 0.00 | 33 | 1010.2 |
| 20260504203517 | 75 | 251 | 4.0 | 8.0 | 0.00 | 0.00 | 0.00 | 32 | 1010.3 |
| 20260504203017 | 75 | 251 | 6.0 | 13.0 | 0.00 | 0.00 | 0.00 | 32 | 1010.2 |
| 20260504202518 | 74 | 240 | 4.0 | 8.0 | 0.00 | 0.00 | 0.00 | 32 | 1010.2 |
| 20260504202018 | 74 | 253 | 4.0 | 9.0 | 0.00 | 0.00 | 0.00 | 33 | 1010.2 |
| 20260504201517 | 74 | 247 | 3.0 | 6.0 | 0.00 | 0.00 | 0.00 | 32 | 1010.2 |
| 20260504201017 | 74 | 182 | 2.0 | 5.0 | 0.00 | 0.00 | 0.00 | 33 | 1010.3 |
| 20260504200518 | 75 | 257 | 6.0 | 10.0 | 0.00 | 0.00 | 0.00 | 32 | 1010.3 |
| 20260504200017 | 74 | 264 | 3.0 | 7.0 | 0.00 | 0.00 | 0.00 | 33 | 1010.2 |
| 20260504195517 | 74 | 267 | 5.0 | 7.0 | 0.00 | 0.00 | 0.00 | 33 | 1010.3 |
| 20260504195018 | 74 | 240 | 6.0 | 10.0 | 0.00 | 0.00 | 0.00 | 33 | 1010.3 |
| 20260504194519 | 74 | 253 | 4.0 | 13.0 | 0.00 | 0.00 | 0.00 | 32 | 1010.5 |
| 20260504194019 | 74 | 248 | 6.0 | 10.0 | 0.00 | 0.00 | 0.00 | 32 | 1010.6 |
| 20260504193517 | 74 | 230 | 6.0 | 8.0 | 0.00 | 0.00 | 0.00 | 32 | 1010.6 |
| 20260504193018 | 74 | 261 | 4.0 | 9.0 | 0.00 | 0.00 | 0.00 | 32 | 1010.7 |
| 20260504192517 | 73 | 259 | 6.0 | 10.0 | 0.00 | 0.00 | 0.00 | 32 | 1010.7 |
| 20260504192018 | 74 | 233 | 4.0 | 5.0 | 0.00 | 0.00 | 0.00 | 32 | 1010.8 |
| 20260504191517 | 74 | 233 | 4.0 | 10.0 | 0.00 | 0.00 | 0.00 | 32 | 1010.8 |
| 20260504191017 | 74 | 238 | 4.0 | 8.0 | 0.00 | 0.00 | 0.00 | 32 | 1010.9 |
| 20260504190517 | 74 | 234 | 5.0 | 9.0 | 0.00 | 0.00 | 0.00 | 31 | 1011.0 |
| 20260504190018 | 74 | 247 | 4.0 | 7.0 | 0.00 | 0.00 | 0.00 | 32 | 1011.0 |
| 20260504185518 | 74 | 223 | 7.0 | 10.0 | 0.00 | 0.00 | 0.00 | 31 | 1011.2 |
| 20260504185018 | 73 | 272 | 3.0 | 5.0 | 0.00 | 0.00 | 0.00 | 32 | 1011.2 |
| 20260504184518 | 74 | 246 | 7.0 | 10.0 | 0.00 | 0.00 | 0.00 | 32 | 1011.3 |
| 20260504184017 | 74 | 200 | 4.0 | 7.0 | 0.00 | 0.00 | 0.00 | 31 | 1011.4 |
| 20260504183518 | 74 | 264 | 4.0 | 7.0 | 0.00 | 0.00 | 0.00 | 31 | 1011.4 |
| 20260504183017 | 73 | 241 | 6.0 | 12.0 | 0.00 | 0.00 | 0.00 | 31 | 1011.4 |
| 20260504182519 | 73 | 244 | 5.0 | 11.0 | 0.00 | 0.00 | 0.00 | 32 | 1011.4 |
| 20260504182021 | 73 | 318 | 2.0 | 6.0 | 0.00 | 0.00 | 0.00 | 32 | 1011.5 |
| 20260504181518 | 72 | 237 | 6.0 | 9.0 | 0.00 | 0.00 | 0.00 | 32 | 1011.7 |
| 20260504181017 | 72 | 243 | 4.0 | 8.0 | 0.00 | 0.00 | 0.00 | 32 | 1011.7 |
| 20260504180517 | 73 | 246 | 5.0 | 10.0 | 0.00 | 0.00 | 0.00 | 31 | 1011.8 |
| 20260504180018 | 72 | 226 | 2.0 | 5.0 | 0.00 | 0.00 | 0.00 | 32 | 1011.9 |
| 20260504175517 | 72 | 244 | 7.0 | 10.0 | 0.00 | 0.00 | 0.00 | 32 | 1011.9 |
| 20260504175018 | 73 | 245 | 7.0 | 11.0 | 0.00 | 0.00 | 0.00 | 31 | 1012.0 |
| 20260504174517 | 72 | 265 | 3.0 | 5.0 | 0.00 | 0.00 | 0.00 | 31 | 1012.1 |
| 20260504174017 | 72 | 214 | 2.0 | 5.0 | 0.00 | 0.00 | 0.00 | 32 | 1012.1 |
| 20260504173517 | 72 | 253 | 6.0 | 11.0 | 0.00 | 0.00 | 0.00 | 32 | 1012.2 |
| 20260504173017 | 72 | 251 | 2.0 | 5.0 | 0.00 | 0.00 | 0.00 | 32 | 1012.3 |
| 20260504172518 | 72 | 249 | 6.0 | 11.0 | 0.00 | 0.00 | 0.00 | 32 | 1012.4 |
| 20260504172017 | 72 | 208 | 2.0 | 4.0 | 0.00 | 0.00 | 0.00 | 32 | 1012.4 |
| 20260504171518 | 72 | 240 | 4.0 | 7.0 | 0.00 | 0.00 | 0.00 | 33 | 1012.4 |
| 20260504171018 | 71 | 217 | 5.0 | 11.0 | 0.00 | 0.00 | 0.00 | 33 | 1012.4 |
| 20260504170518 | 72 | 249 | 6.0 | 12.0 | 0.00 | 0.00 | 0.00 | 33 | 1012.5 |
| 20260504151019 | 67 | 188 | 2.0 | 6.0 | 0.00 | 0.00 | 0.00 | 41 | 1014.0 |
| 20260504150517 | 67 | 243 | 3.0 | 6.0 | 0.00 | 0.00 | 0.00 | 41 | 1014.0 |
| 20260504141017 | 64 | 218 | 3.0 | 5.0 | 0.00 | 0.00 | 0.00 | 50 | 1014.1 |
| 20260504140519 | 64 | 246 | 4.0 | 8.0 | 0.00 | 0.00 | 0.00 | 50 | 1014.2 |
| 20260504130517 | 59 | 249 | 6.0 | 11.0 | 0.00 | 0.00 | 0.00 | 60 | 1014.7 |
| 20260504110518 | 52 | 268 | 1.0 | 2.0 | 0.00 | 0.00 | 0.00 | 74 | 1015.1 |
| 20260504100518 | 51 | 257 | 4.0 | 6.0 | 0.00 | 0.00 | 0.00 | 71 | 1015.2 |
| 20260504081517 | 51 | 247 | 2.0 | 4.0 | 0.00 | 0.00 | 0.00 | 63 | 1015.0 |
| 20260504081017 | 51 | 285 | 2.0 | 4.0 | 0.00 | 0.00 | 0.00 | 63 | 1014.9 |
| 20260504080517 | 51 | 264 | 3.0 | 7.0 | 0.00 | 0.00 | 0.00 | 62 | 1015.0 |